EW5822 Weather Reports


Display with metric or nautical units.
time (UTC)temp
F
wind
direction
speed
MPH
gust
MPH
rain 1hr
in
rain 24hr
in
rain mn
in
humidity
%
barometer
mb
20260906185617 92 47 5.0 10.0 0.00 0.00 0.00 52 1012.9
20260906184503 93 27 5.0 10.0 0.00 0.00 0.00 51 1013.3
20260906183817 93 2 5.0 10.0 0.00 0.00 0.00 51 1013.4
20260906182914 94 19 4.0 9.0 0.00 0.00 0.00 51 1013.5
20260906181804 94 23 5.0 9.0 0.00 0.00 0.00 50 1013.8
20260906180904 92 31 4.0 9.0 0.00 0.00 0.00 52 1013.9
20260906180216 92 351 6.0 12.0 0.00 0.00 0.00 54 1014.1
20260906175403 91 341 6.0 11.0 0.00 0.00 0.00 54 1014.2
20260906174715 91 341 8.0 12.0 0.00 0.00 0.00 55 1014.4
20260906173603 91 14 7.0 10.0 0.00 0.00 0.00 55 1014.5
20260906172703 90 6 8.0 12.0 0.00 0.00 0.00 57 1014.7
20260906171803 90 354 8.0 11.0 0.00 0.00 0.00 56 1014.8
20260906171114 90 346 8.0 12.0 0.00 0.00 0.00 55 1014.8
20260906170003 90 15 6.0 10.0 0.00 0.00 0.00 56 1015.1
20260906165613 89 358 7.0 11.0 0.00 0.00 0.00 56 1015.1
20260906164716 90 343 8.0 13.0 0.00 0.00 0.00 56 1015.1
20260906163603 89 347 9.0 13.0 0.00 0.00 0.00 56 1015.2
20260906162915 89 344 8.0 13.0 0.00 0.00 0.00 56 1015.2
20260906161803 89 305 7.0 10.0 0.00 0.00 0.00 57 1015.2
20260906160903 88 317 7.0 12.0 0.00 0.00 0.00 57 1015.2
20260906160217 87 303 5.0 9.0 0.00 0.00 0.00 59 1015.2
20260906155403 86 305 4.0 8.0 0.00 0.00 0.00 61 1015.0
20260906154503 85 272 3.0 8.0 0.00 0.00 0.00 62 1015.0
20260906153813 84 254 2.0 6.0 0.00 0.00 0.00 64 1014.9
20260906152703 84 269 2.0 5.0 0.00 0.00 0.00 65 1014.9
20260906152013 83 281 1.0 3.0 0.00 0.00 0.00 67 1014.8
20260906150904 82 282 1.0 3.0 0.00 0.00 0.00 68 1014.8
20260906150213 82 282 1.0 3.0 0.00 0.00 0.00 68 1014.7
20260906145614 82 282 1.0 4.0 0.00 0.00 0.00 69 1014.6
20260906144717 82 276 2.0 9.0 0.00 0.00 0.00 70 1014.8
20260906143603 82 279 6.0 20.0 0.00 0.00 0.00 69 1015.1
20260906142917 82 130 2.0 3.0 0.00 0.00 0.00 69 1014.5
20260906142014 83 130 3.0 5.0 0.00 0.00 0.00 69 1014.5
20260906141116 83 123 3.0 5.0 0.00 0.00 0.00 68 1014.4
20260906140003 82 105 3.0 6.0 0.00 0.00 0.00 68 1014.5
20260906135615 82 93 2.0 6.0 0.00 0.00 0.00 69 1014.4
20260906134503 81 0 0.0 0.0 0.00 0.00 0.00 72 1014.4
20260906133603 81 0 0.0 0.0 0.00 0.00 0.00 72 1014.3
20260906132917 81 89 0.0 1.0 0.00 0.00 0.00 72 1014.3
20260906132014 80 89 1.0 2.0 0.00 0.00 0.00 73 1014.2
20260906131117 78 90 1.0 2.0 0.00 0.00 0.00 77 1014.2
20260906130003 76 90 1.0 2.0 0.00 0.00 0.00 81 1013.9
20260906125616 75 90 1.0 2.0 0.00 0.00 0.00 81 1013.9
20260906124504 74 90 0.0 1.0 0.00 0.00 0.00 80 1013.9
20260906123815 75 90 1.0 4.0 0.00 0.00 0.00 79 1013.8
20260906122703 75 88 3.0 5.0 0.00 0.00 0.00 79 1013.5
20260906122015 75 90 5.0 7.0 0.00 0.00 0.00 79 1013.4
20260906121117 74 86 5.0 7.0 0.00 0.00 0.00 79 1013.3
20260906120215 74 62 5.0 6.0 0.00 0.00 0.00 80 1013.1
20260906115403 74 29 6.0 7.0 0.00 0.00 0.00 80 1013.0
20260906114503 74 53 5.0 7.0 0.00 0.00 0.00 80 1012.8
20260906113816 74 50 5.0 7.0 0.00 0.00 0.00 80 1012.9
20260906112703 74 60 5.0 7.0 0.00 0.00 0.00 79 1012.8
20260906111803 74 84 4.0 6.0 0.00 0.00 0.00 79 1012.8
20260906111113 74 93 6.0 7.0 0.00 0.00 0.00 80 1012.8
20260906110215 74 83 6.0 8.0 0.00 0.00 0.00 80 1012.7
20260906105617 74 101 5.0 6.0 0.00 0.00 0.00 79 1012.7
20260906104714 74 101 4.0 6.0 0.00 0.00 0.00 79 1012.7
20260906103603 75 98 3.0 6.0 0.00 0.00 0.00 79 1012.7
20260906102914 75 98 4.0 7.0 0.00 0.00 0.00 78 1012.7
20260906101804 75 89 5.0 7.0 0.00 0.00 0.00 78 1012.5
20260906101114 75 81 5.0 7.0 0.00 0.00 0.00 78 1012.6
20260906100216 75 76 5.0 7.0 0.00 0.00 0.00 78 1012.5
20260906095613 75 54 6.0 8.0 0.00 0.00 0.00 78 1012.4
20260906094504 75 55 4.0 6.0 0.00 0.00 0.00 78 1012.3
20260906093812 75 74 3.0 4.0 0.00 0.00 0.00 78 1012.4
20260906092915 75 40 4.0 7.0 0.00 0.00 0.00 78 1012.5
20260906092017 76 42 5.0 8.0 0.00 0.00 0.00 77 1012.4
20260906090903 76 84 3.0 6.0 0.00 0.00 0.00 77 1012.5
20260906090217 76 82 3.0 4.0 0.00 0.00 0.00 77 1012.5
20260906085613 76 68 4.0 6.0 0.00 0.00 0.00 77 1012.5
20260906084716 76 95 3.0 6.0 0.00 0.00 0.00 77 1012.5
20260906083813 76 87 3.0 4.0 0.00 0.00 0.00 78 1012.4
20260906082915 76 92 4.0 6.0 0.00 0.00 0.00 78 1012.3
20260906082018 76 93 4.0 7.0 0.00 0.00 0.00 78 1012.3
20260906080903 76 53 5.0 8.0 0.00 0.00 0.00 77 1012.3
20260906080003 76 36 4.0 6.0 0.00 0.00 0.00 77 1012.3
20260906075403 76 48 3.0 6.0 0.00 0.00 0.00 76 1012.3
20260906074716 77 36 4.0 8.0 0.00 0.00 0.00 76 1012.2
20260906073813 77 11 7.0 9.0 0.00 0.00 0.00 75 1012.1
20260906072703 77 12 8.0 9.0 0.00 0.00 0.00 75 1012.1
20260906072013 77 13 8.0 9.0 0.00 0.00 0.00 75 1012.1
20260906071116 78 11 7.0 9.0 0.00 0.00 0.00 75 1012.2
20260906070003 78 10 6.0 8.0 0.00 0.00 0.00 74 1012.3
20260906065614 78 31 5.0 7.0 0.00 0.00 0.00 74 1012.4
20260906064717 78 27 5.0 8.0 0.00 0.00 0.00 73 1012.4
20260906063814 79 31 8.0 10.0 0.00 0.00 0.00 72 1012.2
20260906062703 80 58 10.0 12.0 0.00 0.00 0.00 71 1012.2
20260906062014 80 65 10.0 12.0 0.00 0.00 0.00 70 1012.2
20260906061116 80 41 9.0 11.0 0.00 0.00 0.00 69 1012.2
20260906060003 80 54 9.0 11.0 0.00 0.00 0.00 68 1012.4
20260906055403 80 29 9.0 11.0 0.00 0.00 0.00 68 1012.4
20260906054504 80 17 8.0 10.0 0.00 0.00 0.00 69 1012.4
20260906053603 81 33 8.0 10.0 0.00 0.00 0.00 68 1012.4
20260906052917 81 22 9.0 11.0 0.00 0.00 0.00 68 1012.2
20260906051803 81 19 10.0 12.0 0.00 0.00 0.00 68 1012.1
20260906051117 81 17 9.0 11.0 0.00 0.00 0.00 69 1012.1
20260906050214 80 13 9.0 11.0 0.00 0.00 0.00 69 1012.1
20260906045616 80 9 9.0 11.0 0.00 0.00 0.00 70 1012.1
20260906044713 80 9 9.0 10.0 0.00 0.00 0.00 70 1012.1
20260906043815 80 9 9.0 10.0 0.00 0.00 0.00 70 1012.2
20260906042913 81 8 8.0 10.0 0.00 0.00 0.00 69 1012.1
20260906041803 81 36 8.0 9.0 0.00 0.00 0.00 69 1012.2
20260906040903 81 23 9.0 10.0 0.00 0.00 0.00 69 1012.1
20260906040003 81 17 8.0 9.0 0.00 0.00 0.00 69 1012.1
20260906035616 81 27 8.0 9.0 0.00 0.00 0.00 69 1012.1
20260906034503 81 31 8.0 9.0 0.00 0.00 0.00 69 1012.0
20260906033816 81 33 8.0 9.0 0.00 0.00 0.00 69 1012.0
20260906032703 81 26 7.0 9.0 0.00 0.00 0.00 69 1011.8
20260906032016 82 29 8.0 9.0 0.00 0.00 0.00 69 1011.8
20260906030903 82 49 8.0 9.0 0.00 0.00 0.00 68 1011.7
20260906030003 83 66 8.0 9.0 0.00 0.00 0.00 67 1011.7
20260906025617 83 67 8.0 9.0 0.00 0.00 0.00 66 1011.6
20260906024503 84 77 7.0 10.0 0.00 0.00 0.00 65 1011.6
20260906023603 84 74 7.0 9.0 0.00 0.00 0.00 64 1011.4
20260906022703 85 81 7.0 10.0 0.00 0.00 0.00 64 1011.2
20260906022016 86 78 7.0 10.0 0.00 0.00 0.00 63 1011.0
20260906020903 86 72 8.0 10.0 0.00 0.00 0.00 62 1010.8
20260906020216 86 75 8.0 11.0 0.00 0.00 0.00 62 1010.7
20260906015403 86 76 9.0 11.0 0.00 0.00 0.00 62 1010.4
20260906014715 87 76 8.0 11.0 0.00 0.00 0.00 61 1010.3
20260906013812 87 79 7.0 9.0 0.00 0.00 0.00 61 1010.2
20260906012703 88 79 6.0 9.0 0.00 0.00 0.00 59 1010.2
20260906011803 88 78 7.0 9.0 0.00 0.00 0.00 58 1010.2
20260906011114 89 76 6.0 9.0 0.00 0.00 0.00 57 1010.2
20260906010003 90 79 6.0 9.0 0.00 0.00 0.00 56 1010.2
20260906005613 90 78 7.0 9.0 0.00 0.00 0.00 55 1010.3
20260906004716 91 82 6.0 9.0 0.00 0.00 0.00 54 1010.2
20260906003603 92 76 8.0 10.0 0.00 0.00 0.00 52 1010.2
20260906002704 93 71 7.0 9.0 0.00 0.00 0.00 51 1010.2
20260906001803 94 76 8.0 11.0 0.00 0.00 0.00 50 1010.2
20260906000903 94 95 10.0 13.0 0.00 0.00 0.00 49 1010.2
20260906000219 95 95 10.0 14.0 0.00 0.00 0.00 48 1010.1
20260905235403 96 101 10.0 13.0 0.00 0.00 0.00 48 1010.1
20260905234716 96 101 9.0 13.0 0.00 0.00 0.00 47 1010.1
20260905233603 96 88 10.0 15.0 0.00 0.00 0.00 47 1010.3
20260905232916 96 97 10.0 15.0 0.00 0.00 0.00 47 1010.3
20260905232013 97 112 13.0 18.0 0.00 0.00 0.00 45 1010.3
20260905230903 98 106 12.0 17.0 0.00 0.00 0.00 44 1010.3
20260905230213 98 105 13.0 17.0 0.00 0.00 0.00 44 1010.3
20260905225614 99 107 12.0 17.0 0.00 0.00 0.00 44 1010.3
20260905224717 98 117 11.0 15.0 0.00 0.00 0.00 45 1010.2
20260905223603 99 130 11.0 14.0 0.00 0.00 0.00 43 1010.3
20260905222917 100 132 12.0 17.0 0.00 0.00 0.00 42 1010.4
20260905222014 100 136 11.0 17.0 0.00 0.00 0.00 40 1010.5
20260905220903 101 97 10.0 18.0 0.00 0.00 0.00 42 1010.5
20260905220004 101 94 11.0 18.0 0.00 0.00 0.00 41 1010.5
20260905215403 101 117 11.0 19.0 0.00 0.00 0.00 41 1010.5
20260905214503 101 118 12.0 16.0 0.00 0.00 0.00 42 1010.7
20260905213603 100 110 12.0 17.0 0.00 0.00 0.00 42 1010.7
20260905212703 100 117 12.0 16.0 0.00 0.00 0.00 42 1010.8
20260905211803 100 110 12.0 17.0 0.00 0.00 0.00 41 1010.7
20260905210903 99 108 11.0 16.0 0.00 0.00 0.00 41 1010.8
20260905210003 99 108 10.0 16.0 0.00 0.00 0.00 44 1010.9
20260905205403 99 114 11.0 16.0 0.00 0.00 0.00 43 1010.9
20260905204503 99 122 13.0 17.0 0.00 0.00 0.00 43 1011.0
20260905203815 100 115 13.0 17.0 0.00 0.00 0.00 43 1011.1
20260905202703 99 113 12.0 18.0 0.00 0.00 0.00 44 1011.3
20260905202015 99 119 12.0 18.0 0.00 0.00 0.00 44 1011.3
20260905200903 99 91 12.0 17.0 0.00 0.00 0.00 43 1011.5
20260905200215 99 110 12.0 15.0 0.00 0.00 0.00 44 1011.5
20260905195403 98 101 12.0 15.0 0.00 0.00 0.00 46 1011.7
20260905194503 98 114 12.0 16.0 0.00 0.00 0.00 47 1011.8
20260905193603 98 115 11.0 16.0 0.00 0.00 0.00 46 1011.7
20260905192703 99 119 11.0 17.0 0.00 0.00 0.00 46 1011.9
20260905191804 99 121 12.0 15.0 0.00 0.00 0.00 45 1012.0
20260905190904 99 110 11.0 15.0 0.00 0.00 0.00 46 1012.0
20260905190004 100 112 10.0 16.0 0.00 0.00 0.00 45 1012.1